FW1818 Weather Reports


Display with metric or nautical units.
time (UTC)temp
F
wind
direction
speed
MPH
gust
MPH
rain 1hr
in
rain 24hr
in
rain mn
in
humidity
%
barometer
mb
20180218044345 54 252 23.0 27.0 0.00 0.00 0.00 75 1012.7
20180218042830 54 241 24.0 29.0 0.00 0.00 0.00 75 1012.7
20180218040846 55 233 24.0 29.0 0.00 0.00 0.00 74 1013.0
20180218035330 54 235 28.0 31.0 0.00 0.00 0.00 75 1012.6
20180218033336 55 233 21.0 26.0 0.00 0.00 0.00 72 1013.5
20180218031347 56 238 21.0 26.0 0.00 0.00 0.00 67 1014.0
20180218025833 57 236 19.0 26.0 0.00 0.00 0.00 62 1014.1
20180218023844 59 247 16.0 20.0 0.00 0.00 0.00 56 1014.1
20180218021345 60 230 16.0 19.0 0.00 0.00 0.00 50 1014.2
20180218015344 62 241 15.0 18.0 0.00 0.00 0.00 49 1014.3
20180218013345 63 239 14.0 19.0 0.00 0.00 0.00 48 1014.4
20180218011332 64 238 13.0 17.0 0.00 0.00 0.00 50 1014.6
20180218004847 65 227 11.0 13.0 0.00 0.00 0.00 48 1015.0
20180218002826 66 223 10.0 13.0 0.00 0.00 0.00 47 1015.3
20180218000831 66 248 12.0 15.0 0.00 0.00 0.00 47 1015.5
20180217234843 66 254 11.0 15.0 0.00 0.00 0.00 45 1015.7
20180217233326 66 249 10.0 14.0 0.00 0.00 0.00 45 1015.8
20180217231826 66 261 7.0 11.0 0.00 0.00 0.00 44 1015.9
20180217225837 65 263 9.0 13.0 0.00 0.00 0.00 43 1016.4
20180217223838 66 242 5.0 10.0 0.00 0.00 0.00 43 1016.5
20180217221843 65 238 6.0 10.0 0.00 0.00 0.00 42 1016.7
20180217215827 65 216 5.0 9.0 0.00 0.00 0.00 46 1016.8
20180217213834 62 116 5.0 9.0 0.00 0.00 0.00 51 1017.1
20180217211843 62 118 6.0 9.0 0.00 0.00 0.00 50 1017.5
20180217205828 64 186 4.0 9.0 0.00 0.00 0.00 51 1018.1
20180217203839 63 118 2.0 5.0 0.00 0.00 0.00 54 1018.3
20180217201845 61 102 3.0 6.0 0.00 0.00 0.00 56 1018.7
20180217200330 61 81 3.0 6.0 0.00 0.00 0.00 55 1018.8
20180217194347 60 100 4.0 7.0 0.00 0.00 0.00 57 1019.0
20180217192331 59 76 3.0 6.0 0.00 0.00 0.00 59 1019.4
20180217190338 58 63 1.0 5.0 0.00 0.00 0.00 59 1019.4
20180217184351 57 74 2.0 4.0 0.00 0.00 0.00 60 1019.6
20180217182323 57 88 2.0 4.0 0.00 0.00 0.00 61 1019.6
20180217180339 55 69 3.0 5.0 0.00 0.00 0.00 58 1019.7
20180217173835 56 99 2.0 4.0 0.00 0.00 0.00 62 1019.7
20180217171843 57 186 1.0 3.0 0.00 0.00 0.00 53 1019.6
20180217165834 54 240 0.0 2.0 0.00 0.00 0.00 52 1019.6
20180217164329 53 311 2.0 3.0 0.00 0.00 0.00 52 1019.6
20180217162337 52 305 3.0 6.0 0.00 0.00 0.00 57 1019.5
20180217160351 50 306 6.0 7.0 0.00 0.00 0.00 54 1019.4
20180217154344 52 297 4.0 6.0 0.00 0.00 0.00 55 1018.9
20180217152346 55 114 2.0 4.0 0.00 0.00 0.00 47 1018.3
20180217150356 55 120 4.0 5.0 0.00 0.00 0.00 45 1018.4
20180217144342 54 146 1.0 3.0 0.00 0.00 0.00 45 1018.7
20180217142342 54 110 0.0 2.0 0.00 0.00 0.00 45 1018.8
20180217140347 54 354 0.0 1.0 0.00 0.00 0.00 46 1018.5
20180217134839 55 24 1.0 5.0 0.00 0.00 0.00 44 1018.6
20180217132844 53 14 3.0 5.0 0.00 0.00 0.00 47 1019.1
20180217130847 51 157 0.0 1.0 0.00 0.00 0.00 55 1019.1
20180217125338 52 103 2.0 4.0 0.00 0.00 0.00 53 1019.0
20180217123827 53 75 0.0 1.0 0.00 0.00 0.00 51 1019.0
20180217121829 54 40 0.0 1.0 0.00 0.00 0.00 51 1018.9
20180217120321 56 56 0.0 2.0 0.00 0.00 0.00 46 1018.9
20180217114335 57 101 0.0 1.0 0.00 0.00 0.00 43 1018.8
20180217112320 56 238 3.0 5.0 0.00 0.00 0.00 44 1019.2
20180217110341 57 230 2.0 4.0 0.00 0.00 0.00 45 1019.1
20180217104324 57 256 3.0 5.0 0.00 0.00 0.00 44 1019.3
20180217102329 56 190 2.0 5.0 0.00 0.00 0.00 45 1019.3
20180217100820 57 251 4.0 5.0 0.00 0.00 0.00 45 1019.5
20180217094831 57 211 3.0 4.0 0.00 0.00 0.00 43 1019.7
20180217093316 57 240 2.0 4.0 0.00 0.00 0.00 43 1019.8
20180217091332 57 268 5.0 9.0 0.00 0.00 0.00 44 1019.9
20180217085322 57 261 6.0 9.0 0.00 0.00 0.00 44 1020.0
20180217083331 55 250 6.0 9.0 0.00 0.00 0.00 47 1019.9
20180217081318 56 249 8.0 10.0 0.00 0.00 0.00 45 1019.9
20180217075329 57 252 5.0 7.0 0.00 0.00 0.00 45 1019.8
20180217073332 56 224 7.0 11.0 0.00 0.00 0.00 44 1019.7
20180217071332 57 259 8.0 11.0 0.00 0.00 0.00 42 1019.8
20180217065324 58 280 5.0 10.0 0.00 0.00 0.00 41 1020.0
20180217063333 57 252 6.0 8.0 0.00 0.00 0.00 42 1019.9
20180217061815 57 250 6.0 8.0 0.00 0.00 0.00 41 1019.9
20180217055825 56 259 6.0 9.0 0.00 0.00 0.00 44 1020.0
20180217053832 57 247 4.0 9.0 0.00 0.00 0.00 41 1020.0
20180217051817 57 241 6.0 11.0 0.00 0.00 0.00 42 1019.7
20180217045828 57 237 7.0 10.0 0.00 0.00 0.00 44 1019.4
20180217043833 58 216 3.0 6.0 0.00 0.00 0.00 41 1019.5
20180217042318 59 239 5.0 7.0 0.00 0.00 0.00 40 1019.2
20180217040328 58 232 4.0 8.0 0.00 0.00 0.00 40 1019.3
20180217034334 59 198 4.0 6.0 0.00 0.00 0.00 37 1019.3
20180217032317 59 213 6.0 7.0 0.00 0.00 0.00 38 1019.5
20180217030330 58 205 4.0 10.0 0.00 0.00 0.00 41 1019.2
20180217024333 58 240 9.0 11.0 0.00 0.00 0.00 42 1019.3
20180217022830 60 241 6.0 8.0 0.00 0.00 0.00 38 1019.1
20180217021314 60 210 2.0 3.0 0.00 0.00 0.00 38 1019.2
20180217015321 60 183 1.0 2.0 0.00 0.00 0.00 40 1019.2
20180217013331 62 200 3.0 3.0 0.00 0.00 0.00 37 1018.9
20180217011817 63 187 2.0 2.0 0.00 0.00 0.00 37 1019.1
20180217005824 63 197 1.0 4.0 0.00 0.00 0.00 41 1019.1
20180217003832 63 213 3.0 5.0 0.00 0.00 0.00 38 1019.2
20180217002322 63 179 3.0 5.0 0.00 0.00 0.00 39 1019.2
20180217000330 61 109 3.0 4.0 0.00 0.00 0.00 37 1019.4
20180216234333 61 156 3.0 6.0 0.00 0.00 0.00 42 1019.4
20180216232321 61 98 3.0 5.0 0.00 0.00 0.00 37 1019.4
20180216230325 60 110 4.0 8.0 0.00 0.00 0.00 37 1019.5
20180216224817 60 106 3.0 6.0 0.00 0.00 0.00 37 1019.7
20180216222819 60 68 2.0 3.0 0.00 0.00 0.00 36 1020.0
20180216220826 60 93 3.0 7.0 0.00 0.00 0.00 37 1019.9
20180216215317 59 79 4.0 6.0 0.00 0.00 0.00 36 1020.1
20180216213324 58 114 4.0 7.0 0.00 0.00 0.00 40 1021.0
20180216211326 58 74 5.0 9.0 0.00 0.00 0.00 39 1021.1
20180216205332 57 105 4.0 7.0 0.00 0.00 0.00 43 1021.6
20180216203817 57 89 4.0 7.0 0.00 0.00 0.00 45 1021.6
20180216201827 57 78 3.0 7.0 0.00 0.00 0.00 47 1022.4
20180216195831 56 102 4.0 7.0 0.00 0.00 0.00 47 1022.7
20180216194323 55 107 5.0 7.0 0.00 0.00 0.00 48 1022.9
20180216192357 58 117 1.0 5.0 0.00 0.00 0.00 43 1023.2
20180216190846 57 130 2.0 5.0 0.00 0.00 0.00 41 1023.2
20180216185338 56 76 0.0 4.0 0.00 0.00 0.00 43 1023.4
20180216183348 54 76 3.0 5.0 0.00 0.00 0.00 45 1023.6
20180216181350 53 95 2.0 4.0 0.00 0.00 0.00 52 1023.4
20180216175358 52 122 0.0 2.0 0.00 0.00 0.00 53 1023.5
20180216173842 50 122 1.0 3.0 0.00 0.00 0.00 55 1023.4
20180216171848 48 122 1.0 4.0 0.00 0.00 0.00 57 1023.1
20180216165857 47 129 2.0 4.0 0.00 0.00 0.00 63 1023.1
20180216164346 46 129 1.0 3.0 0.00 0.00 0.00 65 1023.0
20180216162847 45 129 2.0 3.0 0.00 0.00 0.00 66 1023.1
20180216160857 43 129 1.0 2.0 0.00 0.00 0.00 69 1023.4
20180216154843 42 192 0.0 0.0 0.00 0.00 0.00 76 1023.2
20180216152851 39 192 0.0 0.0 0.00 0.00 0.00 79 1022.9
20180216151337 38 192 0.0 0.0 0.00 0.00 0.00 79 1022.7
20180216145350 37 192 0.0 0.0 0.00 0.00 0.00 80 1022.7
20180216143356 38 192 0.0 0.0 0.00 0.00 0.00 80 1022.6
20180216141343 38 192 0.0 0.0 0.00 0.00 0.00 81 1022.4
20180216135350 39 192 0.0 0.0 0.00 0.00 0.00 82 1022.2
20180216133839 38 192 0.0 0.0 0.00 0.00 0.00 81 1022.1
20180216131845 39 192 0.0 0.0 0.00 0.00 0.00 81 1022.2
20180216125851 38 192 0.0 0.0 0.00 0.00 0.00 77 1022.0
20180216124338 38 192 0.0 0.0 0.00 0.00 0.00 76 1022.0
20180216122344 38 192 0.0 0.0 0.00 0.00 0.00 72 1021.7
20180216120402 38 192 0.0 0.0 0.00 0.00 0.00 71 1022.0
20180216114841 38 192 0.0 0.0 0.00 0.00 0.00 71 1022.2
20180216112858 38 192 0.0 0.0 0.00 0.00 0.00 69 1022.4
20180216110851 39 192 0.0 0.0 0.00 0.00 0.00 69 1022.6
20180216105338 39 192 0.0 0.0 0.00 0.00 0.00 68 1022.7
20180216103348 39 192 0.0 0.0 0.00 0.00 0.00 68 1022.7
20180216101353 40 192 0.0 0.0 0.00 0.00 0.00 66 1023.0
20180216094849 41 192 0.0 0.0 0.00 0.00 0.00 66 1023.3
20180216092855 40 192 0.0 0.0 0.00 0.00 0.00 68 1023.4
20180216091344 40 192 0.0 0.0 0.00 0.00 0.00 69 1023.5
20180216085351 40 192 0.0 0.0 0.00 0.00 0.00 67 1023.5
20180216083844 41 192 0.0 0.0 0.00 0.00 0.00 66 1023.1
20180216081850 41 192 0.0 0.0 0.00 0.00 0.00 61 1023.3
20180216075908 42 192 0.0 0.0 0.00 0.00 0.00 59 1023.2
20180216073857 43 192 0.0 0.0 0.00 0.00 0.00 60 1023.3
20180216072342 44 192 0.0 0.0 0.00 0.00 0.00 58 1023.2
20180216070357 44 192 0.0 0.0 0.00 0.00 0.00 52 1023.1
20180216064845 45 192 0.0 0.0 0.00 0.00 0.00 50 1023.1
20180216062853 45 192 0.0 0.0 0.00 0.00 0.00 49 1023.3
20180216060900 47 192 0.0 0.0 0.00 0.00 0.00 47 1023.4
20180216054854 48 192 0.0 0.0 0.00 0.00 0.00 43 1023.7
20180216052905 50 192 0.0 1.0 0.00 0.00 0.00 41 1023.5
20180216050849 51 192 3.0 4.0 0.00 0.00 0.00 39 1023.1
20180216044854 50 192 2.0 7.0 0.00 0.00 0.00 38 1022.9
20180216042904 50 186 1.0 4.0 0.00 0.00 0.00 37 1022.8
20180216041345 52 186 0.0 2.0 0.00 0.00 0.00 34 1022.5
20180216035346 53 186 1.0 4.0 0.00 0.00 0.00 32 1022.1
20180216033354 53 186 4.0 6.0 0.00 0.00 0.00 33 1022.1
20180216031845 53 186 3.0 6.0 0.00 0.00 0.00 32 1022.2
20180216025851 54 149 1.0 2.0 0.00 0.00 0.00 29 1022.1
20180216023855 55 149 1.0 3.0 0.00 0.00 0.00 29 1022.1
20180216021858 57 328 0.0 2.0 0.00 0.00 0.00 26 1021.7
20180216015844 59 329 0.0 3.0 0.00 0.00 0.00 22 1021.5
20180216013857 61 329 0.0 3.0 0.00 0.00 0.00 19 1021.4
20180216011839 64 330 2.0 4.0 0.00 0.00 0.00 16 1021.3
20180216005847 65 331 2.0 5.0 0.00 0.00 0.00 14 1021.2
20180216003854 66 349 3.0 10.0 0.00 0.00 0.00 10 1021.1
20180216001941 64 342 6.0 14.0 0.00 0.00 0.00 15 1021.1
20180215235827 63 32 10.0 13.0 0.00 0.00 0.00 22 1020.9
20180215234314 64 31 1.0 6.0 0.00 0.00 0.00 24 1021.2
20180215232314 63 59 4.0 8.0 0.00 0.00 0.00 26 1021.3
20180215230328 63 21 2.0 6.0 0.00 0.00 0.00 22 1021.1
20180215224816 63 347 7.0 14.0 0.00 0.00 0.00 21 1021.4
20180215222839 63 313 6.0 14.0 0.00 0.00 0.00 20 1021.5
20180215221312 63 325 4.0 7.0 0.00 0.00 0.00 23 1021.6
20180215215323 62 6 1.0 7.0 0.00 0.00 0.00 22 1021.9
20180215213819 62 39 4.0 8.0 0.00 0.00 0.00 24 1021.9
20180215211817 61 10 2.0 8.0 0.00 0.00 0.00 23 1022.5
20180215205829 60 21 11.0 16.0 0.00 0.00 0.00 24 1022.6
20180215204316 60 293 7.0 13.0 0.00 0.00 0.00 29 1022.9
20180215202318 59 304 8.0 15.0 0.00 0.00 0.00 26 1023.4
20180215200808 59 312 5.0 11.0 0.00 0.00 0.00 31 1023.5
20180215194813 58 2 2.0 9.0 0.00 0.00 0.00 32 1023.8
20180215192818 57 351 6.0 16.0 0.00 0.00 0.00 33 1023.8
20180215190823 56 11 12.0 17.0 0.00 0.00 0.00 34 1023.8
20180215185307 56 6 13.0 20.0 0.00 0.00 0.00 35 1023.8
20180215183312 55 10 17.0 24.0 0.00 0.00 0.00 37 1023.4
20180215181321 54 13 16.0 22.0 0.00 0.00 0.00 40 1023.7
20180215175810 53 62 9.0 15.0 0.00 0.00 0.00 44 1023.8
20180215173816 52 26 8.0 12.0 0.00 0.00 0.00 44 1023.8
20180215171819 51 31 3.0 6.0 0.00 0.00 0.00 44 1024.0
20180215170311 50 36 6.0 11.0 0.00 0.00 0.00 55 1023.6
20180215164318 50 10 6.0 7.0 0.00 0.00 0.00 45 1023.6
20180215162324 50 3 4.0 7.0 0.00 0.00 0.00 44 1023.7
20180215160312 49 321 7.0 12.0 0.00 0.00 0.00 45 1023.4
20180215154320 49 297 7.0 12.0 0.00 0.00 0.00 47 1023.2
20180215152311 48 286 7.0 11.0 0.00 0.00 0.00 48 1023.3
20180215150312 44 289 2.0 4.0 0.00 0.00 0.00 59 1022.9
20180215144318 44 216 2.0 4.0 0.00 0.00 0.00 61 1022.5
20180215142310 43 215 1.0 3.0 0.00 0.00 0.00 65 1022.4
20180215140322 42 216 0.0 3.0 0.00 0.00 0.00 67 1021.9
20180215134806 41 216 2.0 5.0 0.00 0.00 0.00 70 1021.8
20180215132855 48 320 5.0 8.0 0.00 0.00 0.00 54 1021.5
20180215130900 47 352 5.0 12.0 0.00 0.00 0.00 55 1021.4
20180215124910 48 354 8.0 11.0 0.00 0.00 0.00 56 1021.1
20180215123353 47 315 2.0 3.0 0.00 0.00 0.00 63 1020.9
20180215121353 46 155 3.0 5.0 0.00 0.00 0.00 68 1020.9
20180215115402 46 76 1.0 5.0 0.00 0.00 0.00 63 1021.3
20180215113413 42 269 0.0 0.0 0.00 0.00 0.00 80 1021.1
20180215111329 44 270 2.0 5.0 0.00 0.00 0.00 74 1020.9
20180215105334 45 271 0.0 3.0 0.00 0.00 0.00 69 1020.7
20180215103342 47 269 1.0 4.0 0.00 0.00 0.00 65 1020.4
20180215101328 48 268 2.0 6.0 0.00 0.00 0.00 65 1020.4
20180215095339 48 274 3.0 8.0 0.00 0.00 0.00 66 1020.3
20180215093827 48 279 2.0 8.0 0.00 0.00 0.00 67 1020.1
20180215085843 46 274 0.0 3.0 0.00 0.00 0.00 74 1020.2
20180215083826 47 277 2.0 10.0 0.00 0.00 0.00 75 1020.3
20180215081826 44 250 11.0 19.0 0.00 0.00 0.00 77 1019.9
20180215075910 45 250 18.0 21.0 0.00 0.00 0.00 75 1019.4
20180215074332 45 249 18.0 22.0 0.00 0.00 0.00 75 1019.3
20180215072343 45 252 20.0 26.0 0.00 0.00 0.00 75 1018.8
20180215065840 45 238 22.0 28.0 0.00 0.00 0.00 77 1018.3
20180215064326 45 247 24.0 29.0 0.00 0.00 0.00 77 1018.3
20180215062327 45 245 28.0 33.0 0.00 0.00 0.00 76 1017.9
20180215060338 45 239 24.0 30.0 0.00 0.00 0.00 78 1018.0
20180215054342 45 238 24.0 27.0 0.00 0.00 0.00 82 1017.7
20180215052836 45 252 17.0 23.0 0.00 0.00 0.00 82 1017.9
20180215050838 46 249 25.0 28.0 0.00 0.00 0.00 81 1017.3
20180215044840 47 214 4.0 10.0 0.00 0.00 0.00 81 1017.7
20180215042848 48 227 7.0 14.0 0.00 0.00 0.00 79 1017.9
20180215041331 48 204 5.0 12.0 0.00 0.00 0.00 79 1017.7
20180215035345 49 215 6.0 13.0 0.00 0.00 0.00 78 1017.5
20180215033334 49 214 4.0 15.0 0.00 0.00 0.00 76 1017.3
20180215031341 49 259 9.0 18.0 0.00 0.00 0.00 73 1017.0
20180215025826 49 214 9.0 19.0 0.00 0.00 0.00 73 1016.9
20180215023839 49 194 8.0 15.0 0.00 0.00 0.00 74 1016.3
20180215021837 50 263 12.0 18.0 0.00 0.00 0.00 73 1016.2
20180215015848 51 246 10.0 18.0 0.00 0.00 0.00 72 1016.0
20180215014327 51 244 11.0 20.0 0.00 0.00 0.00 70 1015.7
20180215012339 53 269 13.0 27.0 0.00 0.00 0.00 67 1014.9
20180215010344 54 228 10.0 24.0 0.00 0.00 0.00 65 1015.6
20180215004829 56 233 10.0 21.0 0.00 0.00 0.00 62 1015.9
20180215002836 57 249 8.0 15.0 0.00 0.00 0.00 60 1015.9
20180215001328 58 267 7.0 15.0 0.00 0.00 0.00 59 1016.5
20180214235329 59 238 11.0 16.0 0.00 0.00 0.00 56 1016.7
20180214233334 60 228 6.0 11.0 0.00 0.00 0.00 52 1017.3
20180214231346 61 208 8.0 14.0 0.00 0.00 0.00 43 1017.4
20180214225834 61 242 7.0 14.0 0.00 0.00 0.00 39 1017.4
20180214223840 60 204 7.0 17.0 0.00 0.00 0.00 47 1017.5
20180214222326 61 262 9.0 13.0 0.00 0.00 0.00 46 1017.7
20180214220332 59 209 5.0 13.0 0.00 0.00 0.00 43 1017.9
20180214214343 59 213 5.0 13.0 0.00 0.00 0.00 40 1018.1
20180214212333 59 275 8.0 13.0 0.00 0.00 0.00 38 1018.1
20180214210346 59 257 10.0 17.0 0.00 0.00 0.00 36 1018.6
20180214204832 59 252 8.0 15.0 0.00 0.00 0.00 40 1018.7
20180214202831 58 245 8.0 17.0 0.00 0.00 0.00 39 1019.1
20180214200835 55 252 24.0 29.0 0.00 0.00 0.00 39 1019.1
20180214194843 54 251 24.0 27.0 0.00 0.00 0.00 39 1019.3
20180214193332 53 241 20.0 24.0 0.00 0.00 0.00 49 1019.3
20180214191336 53 252 24.0 27.0 0.00 0.00 0.00 46 1019.2
20180214185829 52 234 19.0 22.0 0.00 0.00 0.00 50 1019.7
20180214183837 51 238 16.0 18.0 0.00 0.00 0.00 52 1020.0
20180214181843 53 242 9.0 13.0 0.00 0.00 0.00 44 1019.9
20180214180325 53 236 9.0 13.0 0.00 0.00 0.00 44 1020.0
20180214174820 52 238 10.0 14.0 0.00 0.00 0.00 48 1020.1
20180214172827 54 254 15.0 18.0 0.00 0.00 0.00 43 1020.0
20180214170318 53 244 9.0 12.0 0.00 0.00 0.00 45 1019.8
20180214164324 52 255 9.0 14.0 0.00 0.00 0.00 49 1019.8
20180214162316 49 254 14.0 16.0 0.00 0.00 0.00 50 1019.6
20180214160808 49 247 8.0 15.0 0.00 0.00 0.00 53 1019.7
20180214154825 50 249 11.0 14.0 0.00 0.00 0.00 49 1019.6
20180214152827 50 261 13.0 15.0 0.00 0.00 0.00 49 1019.4
20180214151312 49 262 11.0 15.0 0.00 0.00 0.00 51 1019.3
20180214145324 48 242 9.0 13.0 0.00 0.00 0.00 51 1019.0
20180214143812 48 244 10.0 13.0 0.00 0.00 0.00 52 1019.0
20180214141809 52 256 6.0 10.0 0.00 0.00 0.00 46 1018.9
20180214135816 51 247 8.0 9.0 0.00 0.00 0.00 46 1018.9
20180214134311 49 242 6.0 8.0 0.00 0.00 0.00 50 1018.9
20180214132807 50 257 4.0 6.0 0.00 0.00 0.00 49 1019.1
20180214131309 51 242 3.0 7.0 0.00 0.00 0.00 48 1019.2
20180214125315 52 259 3.0 5.0 0.00 0.00 0.00 45 1019.2
20180214123322 51 252 3.0 6.0 0.00 0.00 0.00 46 1019.0
20180214121804 53 256 5.0 6.0 0.00 0.00 0.00 43 1018.9
20180214115814 54 234 2.0 3.0 0.00 0.00 0.00 41 1019.0
20180214113822 54 249 2.0 4.0 0.00 0.00 0.00 41 1019.1
20180214111814 53 276 4.0 5.0 0.00 0.00 0.00 43 1019.7
20180214105823 53 278 1.0 3.0 0.00 0.00 0.00 43 1019.8
20180214103815 52 271 2.0 3.0 0.00 0.00 0.00 45 1019.9
20180214102313 40 164 0.0 0.0 0.00 0.00 0.00 69 1020.0
20180214100321 40 164 0.0 0.0 0.00 0.00 0.00 67 1020.1
20180214094309 41 164 0.0 0.0 0.00 0.00 0.00 66 1020.4
20180214092317 41 164 0.0 0.0 0.00 0.00 0.00 66 1020.4
20180214090810 42 164 0.0 0.0 0.00 0.00 0.00 65 1020.5
20180214084823 42 164 0.0 0.0 0.00 0.00 0.00 65 1020.2
20180214082812 42 164 0.0 0.0 0.00 0.00 0.00 63 1020.4
20180214080823 43 164 0.0 0.0 0.00 0.00 0.00 63 1020.5
20180214074812 42 164 0.0 0.0 0.00 0.00 0.00 65 1020.4
20180214072821 43 164 0.0 0.0 0.00 0.00 0.00 64 1020.2
20180214070825 43 164 0.0 0.0 0.00 0.00 0.00 62 1020.1
20180214065313 44 164 0.0 0.0 0.00 0.00 0.00 66 1020.1
20180214063323 45 164 0.0 0.0 0.00 0.00 0.00 59 1019.7
20180214061324 45 164 0.0 0.0 0.00 0.00 0.00 56 1019.7
20180214055806 46 164 0.0 0.0 0.00 0.00 0.00 57 1019.7
20180214053814 47 164 0.0 1.0 0.00 0.00 0.00 55 1019.9
20180214051822 48 164 1.0 3.0 0.00 0.00 0.00 52 1019.7
20180214045828 50 164 1.0 2.0 0.00 0.00 0.00 52 1019.5
20180214043813 52 164 0.0 3.0 0.00 0.00 0.00 46 1019.4
20180214041813 52 164 2.0 4.0 0.00 0.00 0.00 45 1019.0
20180214035828 52 169 2.0 5.0 0.00 0.00 0.00 46 1019.1
20180214034308 52 190 1.0 3.0 0.00 0.00 0.00 47 1019.0
20180214032319 51 190 0.0 3.0 0.00 0.00 0.00 48 1019.1
20180214030805 51 190 0.0 2.0 0.00 0.00 0.00 44 1019.1
20180214024812 53 190 0.0 1.0 0.00 0.00 0.00 42 1019.0
20180214022824 53 190 1.0 3.0 0.00 0.00 0.00 40 1019.1
20180214021307 54 190 1.0 2.0 0.00 0.00 0.00 41 1018.9
20180214015316 55 190 1.0 3.0 0.00 0.00 0.00 40 1018.7
20180214013330 57 190 2.0 5.0 0.00 0.00 0.00 38 1018.8
20180214011825 59 191 3.0 5.0 0.00 0.00 0.00 35 1018.8
20180214010313 62 191 2.0 6.0 0.00 0.00 0.00 31 1018.8
20180214004319 64 151 2.0 7.0 0.00 0.00 0.00 27 1018.8
20180214002322 64 93 2.0 5.0 0.00 0.00 0.00 26 1018.8
20180214000809 64 118 2.0 6.0 0.00 0.00 0.00 25 1018.8
20180213234819 64 89 3.0 6.0 0.00 0.00 0.00 25 1018.8
20180213232817 64 90 3.0 6.0 0.00 0.00 0.00 24 1018.6
20180213231306 64 81 2.0 7.0 0.00 0.00 0.00 23 1018.7
20180213225314 63 82 1.0 8.0 0.00 0.00 0.00 24 1018.7
20180213223320 63 145 2.0 9.0 0.00 0.00 0.00 25 1018.8
20180213221323 63 88 4.0 12.0 0.00 0.00 0.00 27 1018.9
20180213215806 63 55 4.0 11.0 0.00 0.00 0.00 26 1018.8
20180213213812 62 77 6.0 12.0 0.00 0.00 0.00 25 1018.9
20180213211820 62 84 7.0 11.0 0.00 0.00 0.00 27 1018.9
20180213205824 62 75 5.0 9.0 0.00 0.00 0.00 27 1019.0
20180213203817 62 89 5.0 11.0 0.00 0.00 0.00 27 1018.9
20180213201817 61 80 5.0 11.0 0.00 0.00 0.00 28 1019.1
20180213195827 60 15 4.0 13.0 0.00 0.00 0.00 27 1019.4
20180213193820 60 36 5.0 14.0 0.00 0.00 0.00 28 1019.5
20180213192317 60 25 6.0 10.0 0.00 0.00 0.00 28 1019.5
20180213190324 60 99 1.0 5.0 0.00 0.00 0.00 29 1019.4
20180213184457 59 100 2.0 4.0 0.00 0.00 0.00 30 1019.8
20180213182820 58 100 1.0 6.0 0.00 0.00 0.00 31 1019.8
20180213181305 58 19 3.0 8.0 0.00 0.00 0.00 30 1019.8
20180213175312 56 326 3.0 9.0 0.00 0.00 0.00 31 1019.6
20180213173323 56 5 5.0 10.0 0.00 0.00 0.00 32 1019.6
20180213171325 54 195 0.0 3.0 0.00 0.00 0.00 36 1019.5
20180213165810 54 194 1.0 2.0 0.00 0.00 0.00 35 1019.7
20180213163822 50 65 3.0 5.0 0.00 0.00 0.00 42 1019.4
20180213162321 50 58 4.0 7.0 0.00 0.00 0.00 38 1019.2
20180213160809 50 43 4.0 6.0 0.00 0.00 0.00 37 1019.0
20180213154812 50 30 4.0 6.0 0.00 0.00 0.00 37 1018.9
20180213152825 49 3 4.0 8.0 0.00 0.00 0.00 37 1018.5
20180213150857 49 337 5.0 11.0 0.00 0.00 0.00 37 1018.3
20180213145315 49 327 5.0 13.0 0.00 0.00 0.00 38 1018.1
20180213143804 49 354 8.0 12.0 0.00 0.00 0.00 38 1017.7
20180213141813 49 346 10.0 18.0 0.00 0.00 0.00 37 1017.2
20180213135820 49 354 12.0 19.0 0.00 0.00 0.00 37 1016.6
20180213134310 49 359 12.0 18.0 0.00 0.00 0.00 37 1016.5
20180213132311 49 11 13.0 21.0 0.00 0.00 0.00 37 1016.2
20180213130320 49 335 10.0 17.0 0.00 0.00 0.00 37 1015.8
20180213123809 50 16 13.0 18.0 0.00 0.00 0.00 37 1015.3
20180213121822 50 13 15.0 17.0 0.00 0.00 0.00 35 1015.1
20180213115825 50 1 14.0 17.0 0.00 0.00 0.00 36 1014.9
20180213113814 50 347 11.0 16.0 0.00 0.00 0.00 36 1014.7
20180213111827 50 347 6.0 12.0 0.00 0.00 0.00 37 1014.8
20180213110304 49 330 9.0 16.0 0.00 0.00 0.00 37 1014.6
20180213104316 49 19 14.0 22.0 0.00 0.00 0.00 38 1014.4
20180213102320 49 10 21.0 26.0 0.00 0.00 0.00 37 1014.1
20180213100805 50 4 15.0 19.0 0.00 0.00 0.00 36 1014.4
20180213094825 50 4 13.0 19.0 0.00 0.00 0.00 37 1014.4
20180213093315 50 17 15.0 21.0 0.00 0.00 0.00 37 1014.2
20180213091325 50 16 15.0 20.0 0.00 0.00 0.00 37 1014.1
20180213084816 50 320 11.0 18.0 0.00 0.00 0.00 37 1014.0
20180213082825 50 9 14.0 20.0 0.00 0.00 0.00 37 1013.8
20180213081306 50 360 15.0 21.0 0.00 0.00 0.00 37 1013.8
20180213075319 50 14 19.0 25.0 0.00 0.00 0.00 37 1013.5
20180213073325 50 9 18.0 23.0 0.00 0.00 0.00 36 1013.2
20180213071807 51 337 14.0 20.0 0.00 0.00 0.00 36 1013.3
20180213065815 51 337 13.0 19.0 0.00 0.00 0.00 37 1013.1
20180213063820 51 341 12.0 19.0 0.00 0.00 0.00 36 1012.7
20180213062306 51 314 12.0 20.0 0.00 0.00 0.00 37 1012.6
20180213060316 51 332 11.0 15.0 0.00 0.00 0.00 38 1012.5
20180213054806 52 45 21.0 29.0 0.00 0.00 0.00 36 1012.0
20180213052808 53 22 23.0 29.0 0.00 0.00 0.00 36 1011.8
20180213050826 53 24 25.0 31.0 0.00 0.00 0.00 37 1011.4
20180213045308 53 15 20.0 25.0 0.00 0.00 0.00 37 1011.6
20180213043319 52 18 9.0 14.0 0.00 0.00 0.00 38 1011.8
20180213041806 52 13 11.0 17.0 0.00 0.00 0.00 37 1011.8
20180213035817 52 311 11.0 16.0 0.00 0.00 0.00 37 1011.6
20180213034310 53 313 1.0 4.0 0.00 0.00 0.00 37 1011.7
20180213032320 54 316 1.0 5.0 0.00 0.00 0.00 37 1011.7
20180213030309 53 295 1.0 4.0 0.00 0.00 0.00 37 1011.6
20180213024314 53 297 1.0 3.0 0.00 0.00 0.00 37 1011.5
20180213022321 53 349 1.0 2.0 0.00 0.00 0.00 38 1011.2
20180213020324 54 349 0.0 0.0 0.00 0.00 0.00 38 1010.9
20180213014812 55 349 2.0 4.0 0.00 0.00 0.00 38 1010.8
20180213012820 57 350 1.0 5.0 0.00 0.00 0.00 35 1010.3
20180213011308 59 3 2.0 5.0 0.00 0.00 0.00 36 1009.9
20180213005314 60 34 3.0 7.0 0.00 0.00 0.00 35 1009.7
20180213003808 60 342 4.0 9.0 0.00 0.00 0.00 34 1009.5
20180213001810 60 350 3.0 7.0 0.00 0.00 0.00 34 1009.5
20180212235822 60 26 5.0 11.0 0.00 0.00 0.00 33 1009.4
20180212233812 60 351 5.0 12.0 0.00 0.00 0.00 33 1009.3
20180212231820 60 20 5.0 10.0 0.00 0.00 0.00 33 1009.0
20180212230315 61 348 2.0 10.0 0.00 0.00 0.00 34 1009.0
20180212224809 60 341 4.0 9.0 0.00 0.00 0.00 34 1009.0
20180212222820 61 294 3.0 11.0 0.00 0.00 0.00 33 1008.8
20180212220823 60 301 3.0 7.0 0.00 0.00 0.00 33 1009.1
20180212214810 59 351 1.0 7.0 0.00 0.00 0.00 35 1009.0
20180212212813 61 69 1.0 6.0 0.00 0.00 0.00 37 1009.4
20180212210820 59 101 1.0 8.0 0.00 0.00 0.00 42 1009.7
20180212204315 60 77 4.0 9.0 0.00 0.00 0.00 37 1009.9
20180212202315 59 327 2.0 5.0 0.00 0.00 0.00 40 1010.0
20180212200321 58 227 2.0 5.0 0.00 0.00 0.00 41 1010.2
20180212194309 57 38 2.0 6.0 0.00 0.00 0.00 43 1010.4
20180212192311 56 95 2.0 8.0 0.00 0.00 0.00 46 1010.3
20180212190318 56 270 4.0 9.0 0.00 0.00 0.00 46 1010.2
20180212184807 55 266 6.0 12.0 0.00 0.00 0.00 45 1010.2
20180212182811 55 315 3.0 8.0 0.00 0.00 0.00 48 1010.2
20180212180815 54 298 2.0 11.0 0.00 0.00 0.00 50 1010.1
20180212174823 53 271 3.0 7.0 0.00 0.00 0.00 53 1010.1
20180212173319 52 333 3.0 8.0 0.00 0.00 0.00 55 1010.2
20180212171325 50 240 4.0 10.0 0.00 0.00 0.00 62 1009.9
20180212165323 50 253 4.0 10.0 0.00 0.00 0.00 62 1009.9
20180212163314 48 255 5.0 11.0 0.00 0.00 0.00 64 1009.7
20180212161805 48 258 1.0 5.0 0.00 0.00 0.00 66 1009.7
20180212155812 45 252 1.0 4.0 0.00 0.00 0.00 72 1009.5
20180212154307 44 251 0.0 4.0 0.00 0.00 0.00 72 1009.7
20180212152308 44 259 0.0 7.0 0.00 0.00 0.00 71 1009.0
20180212150358 42 258 11.0 17.0 0.00 0.00 0.00 71 1008.7
20180212144411 43 263 13.0 17.0 0.00 0.00 0.00 68 1008.4
20180212142853 43 259 15.0 18.0 0.00 0.00 0.00 68 1008.4
20180212140904 43 256 11.0 15.0 0.00 0.00 0.00 69 1008.2
20180212134913 43 260 7.0 10.0 0.00 0.00 0.00 69 1008.3
20180212132912 43 261 10.0 15.0 0.00 0.00 0.00 71 1008.3
20180212130900 42 266 12.0 19.0 0.00 0.00 0.00 74 1008.2
20180212124904 42 253 16.0 19.0 0.00 0.00 0.00 75 1008.1
20180212123355 42 248 12.0 16.0 0.00 0.00 0.00 76 1008.0
20180212121359 41 256 13.0 17.0 0.00 0.00 0.00 78 1008.0
20180212115404 42 263 12.0 16.0 0.00 0.00 0.00 77 1008.1
20180212113358 43 280 15.0 19.0 0.00 0.00 0.00 76 1008.1
20180212111352 42 271 15.0 22.0 0.00 0.00 0.00 77 1008.0
20180212105400 43 258 12.0 15.0 0.00 0.00 0.00 76 1008.0
20180212103851 43 273 12.0 20.0 0.00 0.00 0.00 76 1008.1
20180212101900 43 245 19.0 23.0 0.00 0.00 0.00 79 1007.8
20180212095910 43 261 19.0 23.0 0.00 0.00 0.00 79 1007.8
20180212093901 43 257 21.0 29.0 0.00 0.00 0.00 79 1007.8
20180212091902 44 237 29.0 35.0 0.00 0.00 0.00 77 1007.1
20180212090356 44 242 22.0 30.0 0.00 0.00 0.00 78 1007.5
20180212084855 44 251 22.0 30.0 0.00 0.00 0.00 79 1007.5
20180212082908 45 251 29.0 33.0 0.00 0.00 0.00 77 1007.3
20180212081354 44 254 25.0 29.0 0.00 0.00 0.00 78 1007.6
20180212075403 45 261 24.0 26.0 0.00 0.00 0.00 77 1007.9
20180212073856 46 261 24.0 26.0 0.00 0.00 0.00 74 1008.1
20180212071904 45 253 18.0 24.0 0.00 0.00 0.00 77 1008.0
20180212065910 44 232 18.0 22.0 0.00 0.00 0.00 80 1008.0
20180212063913 45 247 16.0 21.0 0.00 0.00 0.00 81 1008.0
20180212061911 45 248 18.0 21.0 0.00 0.00 0.00 81 1007.9
20180212060358 45 241 19.0 24.0 0.00 0.00 0.00 81 1008.0
20180212054404 45 245 20.0 25.0 0.00 0.00 0.00 80 1007.9
20180212052851 45 250 18.0 21.0 0.00 0.00 0.00 81 1008.1
20180212050904 46 245 20.0 24.0 0.00 0.00 0.00 79 1008.0
20180212044909 46 247 18.0 23.0 0.00 0.00 0.00 81 1007.7
20180212043405 46 254 20.0 28.0 0.00 0.00 0.00 79 1007.2
20180212041402 47 252 24.0 32.0 0.00 0.00 0.00 81 1006.9
20180212034856 47 249 27.0 34.0 0.00 0.00 0.00 79 1006.6
20180212032908 48 254 32.0 37.0 0.00 0.00 0.00 78 1006.1
20180212031358 47 258 36.0 41.0 0.00 0.00 0.00 81 1005.7
20180212025408 48 256 36.0 43.0 0.00 0.00 0.00 79 1005.4
20180212022855 50 256 39.0 46.0 0.00 0.00 0.00 76 1005.2
20180212020903 51 256 41.0 46.0 0.00 0.00 0.00 69 1004.7
20180212014913 51 260 39.0 44.0 0.00 0.00 0.00 72 1004.4
20180212012851 51 254 29.0 35.0 0.00 0.00 0.00 72 1005.8
20180212010903 52 250 33.0 37.0 0.00 0.00 0.00 72 1005.5
20180212005353 52 248 30.0 39.0 0.00 0.00 0.00 74 1005.6
20180212002901 52 254 34.0 45.0 0.00 0.00 0.00 73 1005.7
20180212000910 52 236 38.0 49.0 0.00 0.00 0.00 69 1005.0
20180211235359 53 262 47.0 53.0 0.00 0.00 0.00 68 1005.0
20180211233410 55 271 35.0 43.0 0.00 0.00 0.00 60 1005.6
20180211231909 55 252 30.0 35.0 0.00 0.00 0.00 63 1006.0
20180211230355 54 250 20.0 33.0 0.00 0.00 0.00 71 1006.6
20180211224403 52 259 43.0 53.0 0.00 0.00 0.00 73 1005.4
20180211222409 51 253 51.0 60.0 0.00 0.00 0.00 71 1003.9
20180211220355 51 242 51.0 65.0 0.00 0.00 0.00 76 1003.0
20180211214411 51 258 45.0 54.0 0.00 0.00 0.00 76 1005.7
20180211212905 52 245 37.0 50.0 0.00 0.00 0.00 76 1005.8
20180211211407 53 231 34.0 43.0 0.00 0.00 0.00 70 1006.4
20180211205413 54 238 25.0 30.0 0.00 0.00 0.00 67 1006.5
20180211203858 53 228 19.0 24.0 0.00 0.00 0.00 73 1007.6
20180211201859 52 234 18.0 23.0 0.00 0.00 0.00 72 1009.2
20180211195914 52 216 19.0 25.0 0.00 0.00 0.00 71 1009.2
20180211193911 51 238 17.0 23.0 0.00 0.00 0.00 72 1010.0
20180211191915 50 256 26.0 31.0 0.00 0.00 0.00 62 1010.9
20180211190401 52 237 14.0 20.0 0.00 0.00 0.00 59 1010.9
20180211184414 51 223 14.0 20.0 0.00 0.00 0.00 56 1010.9
20180211182359 51 231 17.0 26.0 0.00 0.00 0.00 54 1011.3
20180211180416 52 229 17.0 20.0 0.00 0.00 0.00 48 1011.5
20180211174858 52 244 17.0 22.0 0.00 0.00 0.00 45 1011.2
20180211172901 51 252 19.0 24.0 0.00 0.00 0.00 50 1011.2
20180211170905 52 241 18.0 22.0 0.00 0.00 0.00 47 1011.7
20180211164911 53 239 14.0 21.0 0.00 0.00 0.00 45 1011.9
20180211162900 51 242 12.0 22.0 0.00 0.00 0.00 48 1011.6
20180211160906 52 223 19.0 22.0 0.00 0.00 0.00 47 1011.8
20180211154912 51 248 20.0 23.0 0.00 0.00 0.00 47 1011.6
20180211153411 51 243 16.0 20.0 0.00 0.00 0.00 50 1011.7
20180211151903 40 267 1.0 4.0 0.00 0.00 0.00 53 1011.8
20180211145909 40 268 1.0 3.0 0.00 0.00 0.00 53 1011.8
20180211143903 40 267 1.0 3.0 0.00 0.00 0.00 52 1011.5
20180211142350 40 267 0.0 2.0 0.00 0.00 0.00 51 1011.6
20180211140357 41 267 0.0 2.0 0.00 0.00 0.00 49 1011.4
20180211134412 40 267 1.0 3.0 0.00 0.00 0.00 53 1012.1
20180211132858 40 267 1.0 3.0 0.00 0.00 0.00 56 1012.4
20180211130857 40 267 2.0 4.0 0.00 0.00 0.00 60 1012.5
20180211125353 41 267 1.0 3.0 0.00 0.00 0.00 55 1012.6
20180211123409 43 267 1.0 3.0 0.00 0.00 0.00 47 1011.8
20180211121900 44 267 0.0 2.0 0.00 0.00 0.00 44 1011.8
20180211115919 45 267 1.0 4.0 0.00 0.00 0.00 40 1011.8
20180211113904 46 267 0.0 0.0 0.00 0.00 0.00 41 1012.4
20180211111857 47 267 1.0 3.0 0.00 0.00 0.00 45 1012.3
20180211105908 49 267 0.0 2.0 0.00 0.00 0.00 34 1012.6
20180211103855 50 267 0.0 2.0 0.00 0.00 0.00 31 1012.9
20180211101859 53 267 1.0 3.0 0.00 0.00 0.00 27 1012.8
20180211095905 55 267 1.0 4.0 0.00 0.00 0.00 24 1012.6
20180211094352 56 269 3.0 7.0 0.00 0.00 0.00 24 1012.9
20180211092354 55 268 3.0 5.0 0.00 0.00 0.00 24 1012.6
20180211090408 56 269 3.0 6.0 0.00 0.00 0.00 22 1012.4
20180211084900 56 273 3.0 8.0 0.00 0.00 0.00 22 1012.8
20180211082913 55 278 3.0 7.0 0.00 0.00 0.00 24 1012.6
20180211081355 54 142 1.0 5.0 0.00 0.00 0.00 25 1012.2
20180211075407 56 266 0.0 5.0 0.00 0.00 0.00 21 1012.4
20180211073404 60 335 2.0 6.0 0.00 0.00 0.00 18 1012.3
20180211071415 59 29 11.0 16.0 0.00 0.00 0.00 20 1012.0
20180211065357 59 11 21.0 32.0 0.00 0.00 0.00 20 1011.0
20180211063409 60 20 22.0 32.0 0.00 0.00 0.00 20 1011.2
20180211061854 61 329 32.0 42.0 0.00 0.00 0.00 18 1010.6
20180211055901 60 328 20.0 25.0 0.00 0.00 0.00 21 1011.0
20180211053911 60 322 19.0 25.0 0.00 0.00 0.00 22 1011.4
20180211051903 60 337 20.0 24.0 0.00 0.00 0.00 23 1011.3
20180211045912 60 316 15.0 20.0 0.00 0.00 0.00 23 1011.7
20180211044353 60 37 9.0 18.0 0.00 0.00 0.00 23 1011.7
20180211042403 61 340 19.0 27.0 0.00 0.00 0.00 22 1011.5
20180211040410 61 21 23.0 31.0 0.00 0.00 0.00 21 1010.9
20180211034418 63 294 9.0 18.0 0.00 0.00 0.00 17 1010.8
20180211032854 62 16 30.0 39.0 0.00 0.00 0.00 21 1010.0
20180211030857 61 18 34.0 39.0 0.00 0.00 0.00 22 1009.9
20180211025340 61 359 26.0 31.0 0.00 0.00 0.00 23 1010.6
20180211023354 61 343 20.0 27.0 0.00 0.00 0.00 24 1011.0
20180211021401 61 337 16.0 21.0 0.00 0.00 0.00 25 1011.1
20180211015343 62 292 9.0 24.0 0.00 0.00 0.00 25 1011.1
20180211013358 63 352 23.0 30.0 0.00 0.00 0.00 22 1010.6
20180211011843 64 7 19.0 30.0 0.00 0.00 0.00 22 1010.6
20180211005847 65 332 17.0 25.0 0.00 0.00 0.00 22 1010.4
20180211003853 65 326 20.0 27.0 0.00 0.00 0.00 21 1010.5
20180211001902 66 335 20.0 28.0 0.00 0.00 0.00 20 1010.3
20180210235845 66 316 17.0 23.0 0.00 0.00 0.00 19 1010.5
20180210233859 66 323 13.0 19.0 0.00 0.00 0.00 19 1010.6
20180210231908 66 321 9.0 13.0 0.00 0.00 0.00 17 1010.5
20180210230348 65 296 8.0 21.0 0.00 0.00 0.00 19 1010.7
20180210224355 67 316 11.0 21.0 0.00 0.00 0.00 16 1010.8
20180210222353 67 20 20.0 29.0 0.00 0.00 0.00 14 1010.6
20180210220840 68 332 16.0 26.0 0.00 0.00 0.00 15 1010.9
20180210214853 68 349 22.0 33.0 0.00 0.00 0.00 14 1010.5
20180210212904 68 342 24.0 31.0 0.00 0.00 0.00 15 1010.7
20180210210849 69 345 22.0 33.0 0.00 0.00 0.00 19 1010.9
20180210204900 68 16 24.0 30.0 0.00 0.00 0.00 23 1011.3
20180210203401 68 19 15.0 28.0 0.00 0.00 0.00 27 1012.0
20180210201359 67 339 5.0 11.0 0.00 0.00 0.00 35 1012.6
20180210195347 66 289 4.0 8.0 0.00 0.00 0.00 41 1012.8
20180210193357 65 65 1.0 6.0 0.00 0.00 0.00 40 1012.9
20180210191359 64 232 3.0 8.0 0.00 0.00 0.00 46 1012.9
20180210185348 62 253 4.0 6.0 0.00 0.00 0.00 53 1013.1
20180210183354 62 224 6.0 7.0 0.00 0.00 0.00 54 1012.9
20180210181839 61 248 5.0 9.0 0.00 0.00 0.00 51 1013.0
20180210175850 61 238 9.0 12.0 0.00 0.00 0.00 50 1012.9
20180210173856 61 247 6.0 8.0 0.00 0.00 0.00 53 1012.7
20180210172341 61 216 2.0 7.0 0.00 0.00 0.00 50 1013.1
20180210170357 60 242 7.0 13.0 0.00 0.00 0.00 49 1012.9
20180210164349 58 228 12.0 17.0 0.00 0.00 0.00 52 1012.7
20180210162353 57 246 12.0 15.0 0.00 0.00 0.00 56 1012.5
20180210160355 58 232 6.0 10.0 0.00 0.00 0.00 54 1012.9
20180210154401 51 42 2.0 4.0 0.00 0.00 0.00 84 1012.7
20180210152856 51 52 0.0 3.0 0.00 0.00 0.00 86 1012.3
20180210151343 51 52 0.0 1.0 0.00 0.00 0.00 86 1012.4
20180210144852 52 52 1.0 4.0 0.00 0.00 0.00 85 1012.1
20180210143342 52 52 0.0 0.0 0.00 0.00 0.00 86 1012.0
20180210141353 52 52 1.0 3.0 0.00 0.00 0.00 87 1011.9
20180210135403 52 52 0.0 0.0 0.00 0.00 0.00 85 1011.5
20180210133349 52 52 0.0 0.0 0.00 0.00 0.00 84 1011.5
20180210131353 52 46 3.0 5.0 0.00 0.00 0.00 82 1011.9
20180210125400 52 22 0.0 0.0 0.00 0.00 0.00 81 1011.8
20180210122852 53 22 2.0 4.0 0.00 0.00 0.00 82 1011.7
20180210120855 53 22 0.0 3.0 0.00 0.00 0.00 81 1011.7
20180210115341 54 22 0.0 0.0 0.00 0.00 0.00 81 1011.6
20180210113347 54 22 1.0 4.0 0.00 0.00 0.00 84 1011.8
20180210111350 54 22 0.0 0.0 0.00 0.00 0.00 80 1011.9
20180210105845 54 22 0.0 0.0 0.00 0.00 0.00 80 1012.0
20180210103858 55 22 0.0 3.0 0.00 0.00 0.00 78 1012.0
20180210102353 55 22 0.0 2.0 0.00 0.00 0.00 77 1012.2
20180210100357 56 22 0.0 2.0 0.00 0.00 0.00 75 1012.3
20180210094842 56 22 3.0 5.0 0.00 0.00 0.00 76 1012.2
20180210092850 57 311 2.0 5.0 0.00 0.00 0.00 76 1012.4
20180210090853 57 316 0.0 1.0 0.00 0.00 0.00 76 1012.0
20180210085342 57 316 0.0 1.0 0.00 0.00 0.00 75 1011.9
20180210083348 58 316 0.0 1.0 0.00 0.00 0.00 75 1011.5
20180210081355 59 316 3.0 6.0 0.00 0.00 0.00 73 1011.3
20180210075359 58 256 4.0 7.0 0.00 0.00 0.00 76 1011.6
20180210073848 58 242 7.0 10.0 0.00 0.00 0.00 77 1011.7
20180210071847 58 228 7.0 10.0 0.00 0.00 0.00 76 1011.9
20180210065853 59 235 6.0 9.0 0.00 0.00 0.00 75 1011.8
20180210063859 60 234 7.0 9.0 0.00 0.00 0.00 71 1011.8
20180210061852 62 249 5.0 9.0 0.00 0.00 0.00 66 1011.8
20180210055859 61 230 5.0 8.0 0.00 0.00 0.00 67 1011.6
20180210054341 61 241 2.0 9.0 0.00 0.00 0.00 67 1011.9
20180210052348 62 285 12.0 21.0 0.00 0.00 0.00 58 1012.1
20180210050408 64 243 14.0 19.0 0.00 0.00 0.00 57 1011.9
20180210044852 64 228 16.0 20.0 0.00 0.00 0.00 56 1011.9
20180210042906 65 111 1.0 20.0 0.00 0.00 0.00 54 1011.5
20180210040902 66 111 1.0 6.0 0.00 0.00 0.00 52 1011.5
20180210034912 67 143 1.0 6.0 0.00 0.00 0.00 51 1011.6
20180210033356 67 134 1.0 5.0 0.00 0.00 0.00 50 1011.7
20180210031405 67 144 3.0 4.0 0.00 0.00 0.00 51 1011.9
20180210025853 68 164 2.0 3.0 0.00 0.00 0.00 52 1012.0
20180210023907 68 164 0.0 4.0 0.00 0.00 0.00 56 1011.8
20180210022353 69 168 0.0 5.0 0.00 0.00 0.00 54 1012.0
20180210020400 70 275 1.0 3.0 0.00 0.00 0.00 53 1012.2
20180210013910 71 263 0.0 0.0 0.00 0.00 0.00 51 1012.1
20180210011855 72 263 1.0 4.0 0.00 0.00 0.00 49 1012.0
20180210005905 73 257 1.0 4.0 0.00 0.00 0.00 49 1012.1
20180210003406 75 247 4.0 8.0 0.00 0.00 0.00 48 1012.3
20180210001405 76 237 3.0 8.0 0.00 0.00 0.00 44 1012.6
20180209235354 77 238 3.0 7.0 0.00 0.00 0.00 43 1012.9
20180209233401 77 270 3.0 6.0 0.00 0.00 0.00 43 1012.9
20180209231412 78 231 4.0 9.0 0.00 0.00 0.00 41 1013.2
20180209225859 78 242 4.0 10.0 0.00 0.00 0.00 38 1013.2
20180209224353 78 252 5.0 11.0 0.00 0.00 0.00 36 1013.4
20180209222353 78 148 1.0 4.0 0.00 0.00 0.00 37 1013.8
20180209220403 76 240 1.0 7.0 0.00 0.00 0.00 38 1013.7
20180209214412 76 105 2.0 4.0 0.00 0.00 0.00 38 1014.2
20180209212902 74 102 2.0 4.0 0.00 0.00 0.00 43 1014.2
20180209211359 73 95 1.0 5.0 0.00 0.00 0.00 45 1014.6
20180209205408 72 82 2.0 5.0 0.00 0.00 0.00 47 1015.1
20180209203404 71 84 1.0 5.0 0.00 0.00 0.00 47 1015.4
20180209201406 70 86 2.0 5.0 0.00 0.00 0.00 49 1015.8
20180209195402 69 87 4.0 7.0 0.00 0.00 0.00 49 1016.3
20180209193850 68 83 2.0 7.0 0.00 0.00 0.00 53 1016.4
20180209191855 68 92 3.0 6.0 0.00 0.00 0.00 56 1016.7
20180209185903 67 141 1.0 5.0 0.00 0.00 0.00 58 1017.0
20180209183912 65 141 0.0 3.0 0.00 0.00 0.00 61 1017.0
20180209181855 63 141 1.0 4.0 0.00 0.00 0.00 65 1017.1
20180209175912 62 141 0.0 0.0 0.00 0.00 0.00 65 1017.1
20180209174356 60 141 0.0 0.0 0.00 0.00 0.00 71 1017.2
20180209172356 57 141 0.0 3.0 0.00 0.00 0.00 76 1017.1
20180209170404 58 141 1.0 3.0 0.00 0.00 0.00 75 1017.3
20180209164851 62 110 2.0 3.0 0.00 0.00 0.00 66 1017.3
20180209162848 61 92 2.0 3.0 0.00 0.00 0.00 62 1017.1
20180209161341 60 93 1.0 2.0 0.00 0.00 0.00 62 1017.4
20180209155349 60 111 1.0 2.0 0.00 0.00 0.00 59 1017.0
20180209153834 45 119 0.0 0.0 0.00 0.00 0.00 89 1017.0
20180209151836 45 119 0.0 0.0 0.00 0.00 0.00 87 1016.9
20180209150324 45 119 0.0 0.0 0.00 0.00 0.00 87 1016.8
20180209144331 45 119 0.0 0.0 0.00 0.00 0.00 87 1016.5
20180209142332 45 119 0.0 0.0 0.00 0.00 0.00 88 1016.3
20180209140338 46 119 0.0 0.0 0.00 0.00 0.00 86 1016.3
20180209134828 46 119 0.0 0.0 0.00 0.00 0.00 86 1016.2
20180209132832 46 119 0.0 0.0 0.00 0.00 0.00 86 1016.2
20180209131323 46 119 0.0 0.0 0.00 0.00 0.00 85 1016.3
20180209125334 46 119 0.0 0.0 0.00 0.00 0.00 84 1016.5
20180209123821 47 119 0.0 0.0 0.00 0.00 0.00 84 1016.4
20180209121835 47 119 0.0 0.0 0.00 0.00 0.00 82 1016.4
20180209115843 48 119 0.0 1.0 0.00 0.00 0.00 81 1016.5
20180209114329 48 119 0.0 3.0 0.00 0.00 0.00 82 1016.4
20180209112318 48 119 0.0 0.0 0.00 0.00 0.00 82 1016.7
20180209110803 48 119 0.0 0.0 0.00 0.00 0.00 82 1016.7
20180209104809 48 119 0.0 0.0 0.00 0.00 0.00 81 1016.9
20180209102813 49 119 0.0 0.0 0.00 0.00 0.00 80 1016.9
20180209100823 49 119 0.0 0.0 0.00 0.00 0.00 80 1017.0
20180209095310 50 119 0.0 1.0 0.00 0.00 0.00 79 1017.1
20180209093319 50 119 0.0 0.0 0.00 0.00 0.00 78 1017.1
20180209091809 50 119 0.0 0.0 0.00 0.00 0.00 79 1017.1
20180209085825 50 119 0.0 0.0 0.00 0.00 0.00 80 1017.2
20180209083809 51 119 0.0 0.0 0.00 0.00 0.00 79 1017.2
20180209081817 51 119 0.0 0.0 0.00 0.00 0.00 78 1017.4
20180209075837 52 119 0.0 0.0 0.00 0.00 0.00 75 1017.2
20180209074308 52 119 0.0 0.0 0.00 0.00 0.00 75 1017.2
20180209072311 52 119 0.0 0.0 0.00 0.00 0.00 74 1017.5
20180209070807 66 261 3.0 5.0 0.00 0.00 0.00 46 1017.4
20180209064819 67 229 1.0 2.0 0.00 0.00 0.00 44 1017.5
20180209062820 67 241 2.0 5.0 0.00 0.00 0.00 44 1017.5
20180209061303 67 235 4.0 5.0 0.00 0.00 0.00 42 1017.5
20180209055309 67 226 3.0 5.0 0.00 0.00 0.00 40 1017.6
20180209053439 67 230 2.0 6.0 0.00 0.00 0.00 41 1017.5
20180209050813 67 140 1.0 3.0 0.00 0.00 0.00 44 1017.5
20180209044820 68 165 1.0 3.0 0.00 0.00 0.00 44 1017.5
20180209042822 67 235 1.0 2.0 0.00 0.00 0.00 45 1017.4
20180209041320 67 197 0.0 1.0 0.00 0.00 0.00 46 1017.4
20180209035810 66 107 0.0 0.0 0.00 0.00 0.00 49 1017.4
20180209034309 66 107 0.0 0.0 0.00 0.00 0.00 49 1017.2
20180209031823 67 107 0.0 1.0 0.00 0.00 0.00 48 1017.3
20180209030313 68 107 0.0 1.0 0.00 0.00 0.00 47 1017.2
20180209024314 67 107 0.0 1.0 0.00 0.00 0.00 47 1017.1
20180209021824 67 108 0.0 1.0 0.00 0.00 0.00 47 1017.2
20180209020309 68 102 0.0 1.0 0.00 0.00 0.00 46 1017.0
20180209014315 68 131 3.0 4.0 0.00 0.00 0.00 45 1017.3
20180209012319 69 136 3.0 5.0 0.00 0.00 0.00 45 1017.0
20180209010324 70 140 4.0 5.0 0.00 0.00 0.00 47 1017.1
20180209004309 71 150 3.0 4.0 0.00 0.00 0.00 47 1017.6
20180209002321 70 141 3.0 5.0 0.00 0.00 0.00 47 1017.7
20180209000807 71 134 3.0 5.0 0.00 0.00 0.00 47 1017.5
20180208234846 72 159 4.0 5.0 0.00 0.00 0.00 46 1017.9
20180208232855 71 188 4.0 6.0 0.00 0.00 0.00 45 1018.0
20180208230902 69 118 3.0 5.0 0.00 0.00 0.00 43 1018.3
20180208224907 70 104 3.0 4.0 0.00 0.00 0.00 43 1018.4
20180208222857 69 95 2.0 4.0 0.00 0.00 0.00 42 1018.4
20180208220905 69 108 2.0 5.0 0.00 0.00 0.00 43 1018.7
20180208215350 69 110 2.0 4.0 0.00 0.00 0.00 43 1018.8
20180208213406 69 109 3.0 4.0 0.00 0.00 0.00 44 1019.3
20180208211405 67 69 1.0 3.0 0.00 0.00 0.00 45 1019.9
20180208205855 67 59 1.0 3.0 0.00 0.00 0.00 46 1020.0
20180208203900 66 113 1.0 3.0 0.00 0.00 0.00 46 1020.4
20180208201859 65 47 3.0 7.0 0.00 0.00 0.00 53 1020.8
20180208195910 64 41 2.0 7.0 0.00 0.00 0.00 56 1021.0
20180208193905 64 65 3.0 6.0 0.00 0.00 0.00 56 1021.2
20180208191902 63 82 2.0 4.0 0.00 0.00 0.00 60 1021.4
20180208185907 63 98 2.0 4.0 0.00 0.00 0.00 62 1021.5
20180208184357 63 81 0.0 2.0 0.00 0.00 0.00 65 1021.6
20180208182354 61 86 2.0 4.0 0.00 0.00 0.00 64 1021.6
20180208180405 62 240 1.0 4.0 0.00 0.00 0.00 64 1021.7
20180208174852 62 95 1.0 4.0 0.00 0.00 0.00 69 1021.8
20180208172854 63 222 0.0 1.0 0.00 0.00 0.00 44 1021.9
20180208170906 62 312 0.0 2.0 0.00 0.00 0.00 50 1022.0
20180208165350 62 11 0.0 2.0 0.00 0.00 0.00 48 1021.9
20180208163355 62 72 0.0 2.0 0.00 0.00 0.00 45 1021.8
20180208161402 60 143 0.0 1.0 0.00 0.00 0.00 47 1021.6
20180208155410 59 260 0.0 1.0 0.00 0.00 0.00 48 1021.2
20180208153849 60 303 0.0 2.0 0.00 0.00 0.00 49 1021.3
20180208151858 59 8 3.0 5.0 0.00 0.00 0.00 47 1021.2
20180208145908 59 33 1.0 4.0 0.00 0.00 0.00 53 1021.1
20180208143857 58 27 1.0 4.0 0.00 0.00 0.00 54 1021.2
20180208141902 59 74 0.0 2.0 0.00 0.00 0.00 59 1021.0
20180208135912 59 100 0.0 1.0 0.00 0.00 0.00 63 1020.9
20180208134355 60 101 0.0 2.0 0.00 0.00 0.00 60 1020.9
20180208132354 61 53 0.0 0.0 0.00 0.00 0.00 54 1020.9
20180208130409 62 321 0.0 0.0 0.00 0.00 0.00 51 1020.9
20180208124901 47 143 0.0 0.0 0.00 0.00 0.00 87 1021.0
20180208122901 47 143 0.0 0.0 0.00 0.00 0.00 87 1020.8
20180208120858 47 143 0.0 0.0 0.00 0.00 0.00 86 1020.8
20180208114409 48 143 0.0 0.0 0.00 0.00 0.00 87 1020.7
20180208112356 48 143 0.0 0.0 0.00 0.00 0.00 88 1020.6
20180208110345 51 243 2.0 4.0 0.00 0.00 0.00 85 1020.9
20180208104336 51 243 2.0 3.0 0.00 0.00 0.00 83 1020.8
20180208102825 51 243 2.0 4.0 0.00 0.00 0.00 83 1020.9
20180208100837 49 143 0.0 0.0 0.00 0.00 0.00 85 1021.1
20180208094827 50 143 0.0 0.0 0.00 0.00 0.00 85 1021.2
20180208092832 49 143 0.0 0.0 0.00 0.00 0.00 86 1021.2
20180208091323 49 143 0.0 0.0 0.00 0.00 0.00 86 1021.2
20180208085336 50 143 0.0 0.0 0.00 0.00 0.00 85 1021.2
20180208083825 51 143 0.0 0.0 0.00 0.00 0.00 85 1021.4
20180208082324 51 143 0.0 0.0 0.00 0.00 0.00 85 1021.6
20180208080723 64 199 1.0 2.0 0.00 0.00 0.00 61 1021.8
20180208053343 65 138 4.0 5.0 0.00 0.00 0.00 61 1021.8
20180208050830 66 113 3.0 5.0 0.00 0.00 0.00 59 1021.9